Location: Göttingen
(51.5413°N, 9.9158°E)
Time: 07:04:26
(UTC+02:00)

Envisat - Pass Details

Date: 25 January 2022
Orbit: 764 x 765 km, 98.2° (Epoch: 25 May)

Event Time Altitude Azimuth Distance (km) Brightness Sun altitude
Rises 05:52:00 0° 12° (NNE) 3,244 6.3 -21.0°
Reaches altitude 10° 05:54:20 10° 9° (N) 2,314 5.5 -20.6°
Maximum altitude 05:59:21 60° 290° (WNW) 874 2.9 -19.9°
Drops below altitude 10° 06:04:19 10° 211° (SSW) 2,299 5.2 -19.1°
Sets 06:06:38 0° 208° (SSW) 3,221 6.0 -18.7°
